Atlanta, GA

4:36 PM EDT on August 27, 2016 (GMT -0400)
Fulton County-Brown

Weather History for KFTY - February, 2014

Change the Weather History Date:

Sunday, February 16, 2014

  Actual Average Record
Temperature  
Mean Temperature 46 °F 46 °F  
Max Temperature 63 °F 57 °F 75 °F (2001)
Min Temperature 28 °F 35 °F 21 °F (2007)
Degree Days  
Heating Degree Days 19 19  
Month to date heating degree days 363 319  
Since 1 July heating degree days 2397 2135  
Moisture  
Dew Point 27 °F    
Average Humidity 54    
Maximum Humidity 85    
Minimum Humidity 23    
Precipitation  
Precipitation 0.00 in 0.18 in 2.17 in (1990)
Month to date precipitation 2.28 2.63  
Year to date precipitation 4.88 6.90  
Snow  
Snow 0.00 in - - ()
Month to date snowfall 0.0  
Since 1 July snowfall T  
Snow Depth 0.00 in    
Sea Level Pressure  
Sea Level Pressure 30.12 in    
Wind  
Wind Speed 4 mph (West)    
Max Wind Speed 16 mph    
Max Gust Speed 21 mph    
Visibility 10 miles    
Events      
T = Trace of Precipitation, MM = Missing Value Source: NWS Daily Summary

Daily Weather History Graph

Daily Weather History Graph

Search for Another Location

Airport or City:

Trip Planner

Search our weather history database for the weather conditions in past years. The results will help you decide how hot, cold, wet, or windy it might be!

Date:

Astronomy

Feb. 16, 2014 Rise Set
Actual Time 7:21 AM EST 6:23 PM EST
Civil Twilight 6:55 AM EST 6:48 PM EST
Nautical Twilight 6:26 AM EST 7:18 PM EST
Astronomical Twilight 5:57 AM EST 7:47 PM EST
Moon 8:11 PM EST (2/16) 7:57 AM EST (2/16)
Length of Visible Light 11h 52m
Length of Day
11h 01m
Full, 97% of the Moon is Illuminated
Feb 16
Full
Feb 22
Last Quarter
Mar 1
New
Mar 8
First Quarter
Mar 16
Full

Hourly Weather History & Observations

Time (EST) Temp. Windchill Dew Point Humidity Pressure Visibility Wind Dir Wind Speed Gust Speed Precip Events Conditions
12:53 AM 28.9 °F - 25.0 °F 85% 30.11 in 10.0 mi Calm Calm - N/A   Clear
1:53 AM 30.0 °F - 26.1 °F 85% 30.12 in 10.0 mi Calm Calm - N/A   Clear
2:53 AM 30.9 °F - 26.1 °F 82% 30.11 in 10.0 mi Calm Calm - N/A   Clear
3:53 AM 32.0 °F - 27.0 °F 82% 30.12 in 10.0 mi Calm Calm - N/A   Clear
4:53 AM 33.1 °F - 25.0 °F 72% 30.11 in 10.0 mi Calm Calm - N/A   Clear
5:53 AM 33.1 °F - 25.0 °F 72% 30.11 in 10.0 mi Calm Calm - N/A   Overcast
6:53 AM 32.0 °F - 24.1 °F 73% 30.12 in 10.0 mi Calm Calm - N/A   Clear
7:53 AM 32.0 °F 28.7 °F 25.0 °F 75% 30.13 in 10.0 mi SSW 3.5 mph - N/A   Clear
8:53 AM 36.0 °F 32.1 °F 25.0 °F 64% 30.14 in 10.0 mi SSW 4.6 mph - N/A   Clear
9:53 AM 42.1 °F 39.2 °F 27.0 °F 55% 30.14 in 10.0 mi SSW 4.6 mph - N/A   Clear
10:53 AM 50.0 °F - 28.0 °F 43% 30.14 in 10.0 mi SW 5.8 mph - N/A   Clear
11:53 AM 54.0 °F - 28.9 °F 38% 30.14 in 10.0 mi West 10.4 mph - N/A   Clear
12:53 PM 57.9 °F - 30.9 °F 36% 30.12 in 10.0 mi NW 8.1 mph - N/A   Clear
1:53 PM 60.1 °F - 30.9 °F 33% 30.10 in 10.0 mi WSW 5.8 mph - N/A   Clear
2:53 PM 62.1 °F - 28.9 °F 29% 30.08 in 10.0 mi WNW 11.5 mph 19.6 mph N/A   Clear
3:53 PM 63.0 °F - 26.1 °F 25% 30.07 in 10.0 mi WNW 10.4 mph 17.3 mph N/A   Clear
4:53 PM 61.0 °F - 23.0 °F 23% 30.09 in 10.0 mi WNW 11.5 mph - N/A   Clear
5:53 PM 60.1 °F - 25.0 °F 26% 30.11 in 10.0 mi NW 6.9 mph - N/A   Clear
6:53 PM 55.9 °F - 25.0 °F 30% 30.13 in 10.0 mi NW 3.5 mph - N/A   Clear
7:53 PM 48.0 °F - 28.0 °F 46% 30.14 in 10.0 mi Calm Calm - N/A   Clear
8:53 PM 45.0 °F - 28.9 °F 53% 30.15 in 10.0 mi Calm Calm - N/A   Clear
9:53 PM 41.0 °F - 30.0 °F 65% 30.16 in 10.0 mi Calm Calm - N/A   Clear
10:53 PM 39.9 °F - 30.9 °F 70% 30.14 in 10.0 mi Calm Calm - N/A   Clear
11:53 PM 37.9 °F - 30.9 °F 76% 30.14 in 10.0 mi Calm Calm - N/A   Clear